Weather History for Pine Bluff, AR

Change the Weather History Date:

Friday, September 20, 2013

  Actual Average Record
Temperature  
Mean Temperature 75 °F 73 °F  
Max Temperature 80 °F 84 °F 102 °F (1925)
Min Temperature 69 °F 61 °F 43 °F (1901)
Degree Days  
Heating Degree Days 0 0  
Month to date heating degree days 0 0  
Since 1 July heating degree days 0 0  
Cooling Degree Days 10 8  
Month to date cooling degree days 304 222  
Year to date cooling degree days 1968 1980  
Growing Degree Days 24 (Base 50)    
Moisture  
Dew Point 71 °F    
Average Humidity 84    
Maximum Humidity 100    
Minimum Humidity 67    
Precipitation  
Precipitation 4.26 in 0.09 in 4.26 in (2013)
Month to date precipitation 4.44 1.60  
Year to date precipitation 38.07 34.79  
Snow  
Snow 0.00 in 0.00 in 0.00 in (2002)
Month to date snowfall 0.0 0.0  
Since 1 July snowfall 0.0 0.0  
Since 1 September snowfall 0.0 0.0  
Snow Depth 0.00 in    
Sea Level Pressure  
Sea Level Pressure 29.89 in    
Wind  
Wind Speed 6 mph (ENE)    
Max Wind Speed 20 mph    
Max Gust Speed 23 mph    
Visibility 4 miles    
Events Fog , Rain    
T = Trace of Precipitation, MM = Missing Value Source: NWS Daily Summary

Daily Weather History Graph

Daily Weather History Graph

Search for Another Location

Airport:

Trip Planner

Search our weather history database for the weather conditions in past years. The results will help you decide how hot, cold, wet, or windy it might be!

Date:

Astronomy

Sep. 20, 2013 Rise Set
Actual Time 6:54 AM CDT 7:06 PM CDT
Civil Twilight 6:29 AM CDT 7:31 PM CDT
Nautical Twilight 6:00 AM CDT 8:01 PM CDT
Astronomical Twilight 5:30 AM CDT 8:30 PM CDT
Moon 7:47 PM CDT (9/20) 8:04 AM CDT (9/20)
Length of Visible Light 13h 02m
Length of Day
12h 12m
Full, 98% of the Moon is Illuminated
Sep 20
Full
Sep 26
Last Quarter
Oct 4
New
Oct 11
First Quarter
Oct 18
Full

Hourly Weather History & Observations

Time (CDT) Temp. Heat Index Dew Point Humidity Pressure Visibility Wind Dir Wind Speed Gust Speed Precip Events Conditions
12:53 AM 80.1 °F 82.7 °F 68.0 °F 67% 29.95 in 10.0 mi South 12.7 mph - N/A   Clear
1:53 AM 78.1 °F - 68.0 °F 71% 29.94 in 10.0 mi South 9.2 mph - N/A   Clear
2:53 AM 77.0 °F - 69.1 °F 76% 29.94 in 10.0 mi South 6.9 mph - N/A   Clear
3:53 AM 75.9 °F - 69.1 °F 79% 29.94 in 10.0 mi Calm Calm - N/A   Partly Cloudy
4:24 AM 75.2 °F - 69.8 °F 83% 29.95 in 10.0 mi Calm Calm - N/A   Mostly Cloudy
4:53 AM 75.9 °F - 70.0 °F 82% 29.94 in 10.0 mi SSE 4.6 mph - 0.00 in Rain Light Rain
5:53 AM 73.9 °F - 72.0 °F 93% 29.93 in 9.0 mi Calm Calm - 0.12 in Rain Light Rain
6:53 AM 73.9 °F - 71.1 °F 91% 29.92 in 8.0 mi ESE 4.6 mph - 0.02 in Rain Light Rain
7:08 AM 73.4 °F - 71.6 °F 94% 29.93 in 8.0 mi ESE 4.6 mph - 0.00 in Rain Light Rain
7:15 AM 73.4 °F - 71.6 °F 94% 29.93 in 8.0 mi Calm Calm - 0.01 in Rain Light Rain
7:35 AM 73.4 °F - 71.6 °F 94% 29.93 in 2.0 mi East 3.5 mph - 0.16 in Rain Heavy Rain
7:42 AM 73.4 °F - 71.6 °F 94% 29.93 in 2.0 mi East 5.8 mph - 0.20 in Rain Heavy Rain
7:51 AM 73.4 °F - 71.6 °F 94% 29.93 in 4.0 mi East 5.8 mph - 0.23 in Rain Rain
7:53 AM 73.0 °F - 71.1 °F 93% 29.92 in 4.0 mi East 5.8 mph - 0.23 in Rain Rain
8:06 AM 73.4 °F - 71.6 °F 94% 29.93 in 4.0 mi ESE 6.9 mph - 0.04 in Rain Rain
8:13 AM 73.4 °F - 71.6 °F 94% 29.92 in 1.8 mi East 8.1 mph - 0.22 in Rain Heavy Rain
8:22 AM 73.4 °F - 71.6 °F 94% 29.92 in 1.5 mi East 8.1 mph - 0.27 in Rain Heavy Rain
8:30 AM 73.4 °F - 71.6 °F 94% 29.92 in 3.0 mi East 6.9 mph - 0.30 in Rain Rain
8:43 AM 73.4 °F - 71.6 °F 94% 29.93 in 2.5 mi ESE 4.6 mph - 0.35 in Rain Heavy Rain
8:53 AM 73.0 °F - 72.0 °F 96% 29.91 in 3.0 mi ESE 3.5 mph - 0.39 in Rain Rain
8:58 AM 73.4 °F - 71.6 °F 94% 29.92 in 3.0 mi SE 3.5 mph - 0.02 in Rain Heavy Rain
9:14 AM 73.4 °F - 71.6 °F 94% 29.93 in 2.5 mi Calm Calm - 0.09 in Rain Heavy Rain
9:35 AM 73.4 °F - 71.6 °F 94% 29.93 in 0.8 mi WSW 5.8 mph - 0.30 in Rain Heavy Rain
9:42 AM 73.4 °F - 71.6 °F 94% 29.93 in 0.2 mi Calm Calm - 0.50 in Fog , Rain Heavy Rain
9:53 AM 73.9 °F - 72.0 °F 93% 29.91 in 0.5 mi Calm Calm - 0.64 in Fog , Rain Heavy Rain
10:04 AM 73.4 °F - 71.6 °F 94% 29.92 in 1.0 mi WSW 3.5 mph - 0.11 in Rain Heavy Rain
10:09 AM 73.4 °F - 71.6 °F 94% 29.93 in 0.8 mi SSW 4.6 mph - 0.20 in Rain Heavy Rain
10:21 AM 73.4 °F - 73.4 °F 100% 29.92 in 2.5 mi Calm Calm - 0.27 in Rain Rain
10:28 AM 73.4 °F - 71.6 °F 94% 29.92 in 5.0 mi SW 3.5 mph - 0.28 in Rain Rain
10:53 AM 73.9 °F - 73.0 °F 97% 29.91 in 7.0 mi Calm Calm - 0.31 in Rain Light Rain
11:14 AM 73.4 °F - 71.6 °F 94% 29.92 in 5.0 mi SE 4.6 mph - 0.03 in Rain Rain
11:32 AM 73.4 °F - 71.6 °F 94% 29.92 in 1.5 mi SSE 4.6 mph - 0.22 in Rain Heavy Rain
11:35 AM 73.4 °F - 71.6 °F 94% 29.91 in 0.8 mi Calm Calm - 0.33 in Rain Heavy Rain
11:46 AM 73.4 °F - 71.6 °F 94% 29.91 in 2.0 mi Calm Calm - 0.38 in Rain Rain
11:53 AM 73.9 °F - 72.0 °F 93% 29.90 in 5.0 mi South 3.5 mph - 0.39 in Rain Rain
12:04 PM 75.2 °F - 73.4 °F 94% 29.90 in 5.0 mi SSE 3.5 mph - 0.02 in Rain Rain
12:12 PM 75.2 °F - 73.4 °F 94% 29.90 in 5.0 mi ESE 3.5 mph - 0.05 in Rain Rain
12:47 PM 75.2 °F - 73.4 °F 94% 29.90 in 7.0 mi Calm Calm - 0.13 in Rain Rain
12:53 PM 73.9 °F - 72.0 °F 93% 29.88 in 5.0 mi Calm Calm - 0.15 in Rain Heavy Rain
1:00 PM 75.2 °F - 73.4 °F 94% 29.89 in 4.0 mi NE 3.5 mph - 0.03 in Rain Heavy Rain
1:10 PM 75.2 °F - 73.4 °F 94% 29.88 in 3.0 mi NE 4.6 mph - 0.07 in Rain Heavy Rain
1:46 PM 73.4 °F - 73.4 °F 100% 29.86 in 2.5 mi NE 3.5 mph - 0.26 in Rain Heavy Rain
1:51 PM 75.2 °F - 73.4 °F 94% 29.86 in 1.8 mi NE 4.6 mph - 0.30 in Rain Heavy Rain
1:53 PM 75.0 °F - 73.0 °F 94% 29.86 in 1.8 mi Calm Calm - 0.31 in Rain Heavy Rain
2:17 PM 73.4 °F - 71.6 °F 94% 29.86 in 1.0 mi SW 5.8 mph - 0.26 in Rain Heavy Rain
2:23 PM 73.4 °F - 71.6 °F 94% 29.86 in 1.2 mi SW 10.4 mph 23.0 mph 0.35 in Rain Heavy Rain
2:40 PM 73.4 °F - 71.6 °F 94% 29.85 in 2.0 mi WNW 4.6 mph - 0.50 in Rain Heavy Rain
2:53 PM 73.0 °F - 71.1 °F 93% 29.84 in 3.0 mi WNW 8.1 mph - 0.55 in Rain Heavy Rain
3:02 PM 71.6 °F - 69.8 °F 94% 29.84 in 2.5 mi NNW 11.5 mph - 0.06 in Rain Heavy Rain
3:16 PM 71.6 °F - 69.8 °F 94% 29.85 in 3.0 mi North 9.2 mph - 0.13 in Rain Heavy Rain
3:19 PM 71.6 °F - 69.8 °F 94% 29.85 in 2.0 mi North 15.0 mph 18.4 mph 0.18 in Rain Heavy Rain
3:21 PM 71.6 °F - 69.8 °F 94% 29.85 in 1.8 mi North 16.1 mph - 0.20 in Rain Heavy Rain
3:46 PM 71.6 °F - 69.8 °F 94% 29.85 in 2.5 mi North 9.2 mph - 0.42 in Rain Heavy Rain
3:53 PM 71.1 °F - 70.0 °F 96% 29.84 in 2.0 mi North 10.4 mph - 0.48 in Rain Heavy Rain
4:01 PM 71.6 °F - 69.8 °F 94% 29.84 in 1.8 mi North 13.8 mph 19.6 mph 0.08 in Rain Heavy Rain
4:10 PM 71.6 °F - 69.8 °F 94% 29.84 in 3.0 mi North 13.8 mph 21.9 mph 0.12 in Rain Heavy Rain
4:18 PM 71.6 °F - 69.8 °F 94% 29.84 in 5.0 mi NNE 13.8 mph - 0.14 in Rain Rain
4:44 PM 71.6 °F - 69.8 °F 94% 29.83 in 3.0 mi NNE 11.5 mph - 0.20 in Rain Rain
4:53 PM 71.1 °F - 68.0 °F 90% 29.82 in 5.0 mi NNE 11.5 mph - 0.21 in Rain Light Rain
5:40 PM 69.8 °F - 68.0 °F 94% 29.84 in 7.0 mi NE 9.2 mph - 0.04 in Rain Rain
5:53 PM 70.0 °F - 68.0 °F 93% 29.83 in 4.0 mi NE 11.5 mph - 0.08 in Rain Rain
6:53 PM 70.0 °F - 68.0 °F 93% 29.84 in 5.0 mi NE 9.2 mph - 0.08 in Rain Rain
7:43 PM 69.8 °F - 68.0 °F 94% 29.84 in 6.0 mi NNE 9.2 mph - 0.09 in Rain Rain
7:53 PM 70.0 °F - 68.0 °F 93% 29.83 in 6.0 mi NE 10.4 mph - 0.11 in Rain Rain
8:53 PM 70.0 °F - 68.0 °F 93% 29.85 in 7.0 mi NNE 9.2 mph - 0.08 in Rain Light Rain
9:53 PM 70.0 °F - 68.0 °F 93% 29.86 in 8.0 mi NNE 8.1 mph - 0.06 in Rain Rain
10:53 PM 70.0 °F - 68.0 °F 93% 29.85 in 10.0 mi North 9.2 mph - 0.04 in Rain Light Rain
11:53 PM 69.1 °F - 66.9 °F 93% 29.84 in 10.0 mi NE 6.9 mph - 0.00 in Rain Light Rain